Tracking 28908 objects as of 20-May-2024
HD Live streaming from Space Station
objects crossing your sky now

COSMOS 2340

Track COSMOS 2340 now!
COSMOS 2340 is classified as:


NORAD ID: 24761
Int'l Code: 1997-015A
Perigee: 2,379.5 km
Apogee: 37,972.9 km
Inclination: 65.3 °
Period: 717.4 minutes
Semi major axis: 26547 km
RCS: 6.3095 m2 (large)
Launch date: April 9, 1997
Source: Commonwealth of Independent States (former USSR) (CIS)
Launch site: PLESETSK MISSILE AND SPACE COMPLEX (PKMTR)
Your satellite tracking list
Your tracking list is empty




NASA's NSSDC Master Catalog

Two Line Element Set (TLE):
1 24761U 97015A   24139.91490459 -.00000885  00000-0  00000-0 0  9994
2 24761  65.3475 216.3272 6703788 160.1739 249.1909  2.00712815198616
Source of the keplerian elements: AFSPC